sat.trackr.live / text

‹ back to catalog

STARLINK-34682

NORAD 64854 · 2025-152N

PAYLOAD ACTIVE UNKNOWN

§ Identity

Operator
Country
US
Launch date
2025-07-19
Launch site
AFWTR
Launch vehicle
Mass (kg)
RCS (m²)

Purposes: comms

External: N2YO · Heavens-Above · Gunter

§ Orbital elements

Epoch: 2026-05-25T03:08:19.608000Z

Period
95.64 min
Inclination
97.4505°
Eccentricity
0.0002741
Mean motion
15.05656534 rev/d
Perigee alt
547.6 km
Apogee alt
551.4 km
Semi-major
6,927.6 km
B*
2.1731e-4
RAAN
0.5394°
Arg perigee
83.4993°
Mean anomaly
276.6546°
Rev number
4,692

§ Raw data

STARLINK-346821 64854U 25152N   26145.13078250  .00003079  00000+0  21731-3 0  99912 64854  97.4505   0.5394 0002741  83.4993 276.6546 15.05656534 46927

JSON: /api/v1/satellites/64854 · /tle

For live sub-satellite position, see the globe view (requires WebGL).

§ Visibility from observer

Set your observer location to see the next 7 days of passes ≥ 10°. The values pass through the URL so the page stays shareable.

No JS? Fill the form by hand. The geolocation button needs JavaScript.